Time,TemperatureF,DewpointF,PressureIn,WindDirection,WindDirectionDegrees,WindSpeedMPH,WindSpeedGustMPH,Humidity,HourlyPrecipIn,Conditions,Clouds,dailyrainin,SoftwareType,DateUTC
2013-01-01 00:01:00,25.3,21.7,30.25,East,80,0.0,0.0,86,0.00,,,0.00,Wunderground v.1.15,2013-01-01 07:01:00,
2013-01-01 00:06:00,24.7,21.1,30.25,ENE,74,0.0,0.0,86,0.00,,,0.00,Wunderground v.1.15,2013-01-01 07:06:00,
2013-01-01 00:12:00,23.9,20.6,30.25,ENE,72,0.0,0.0,87,0.00,,,0.00,Wunderground v.1.15,2013-01-01 07:12:00,
2013-01-01 00:17:00,23.6,20.6,30.25,ENE,63,0.0,0.0,88,0.00,,,0.00,Wunderground v.1.15,2013-01-01 07:17:00,
2013-01-01 00:23:00,23.4,20.4,30.25,ENE,62,0.0,0.0,88,0.00,,,0.00,Wunderground v.1.15,2013-01-01 07:23:00,
2013-01-01 00:28:00,23.1,20.1,30.25,ENE,63,0.0,0.0,88,0.00,,,0.00,Wunderground v.1.15,2013-01-01 07:28:00,
2013-01-01 00:33:00,22.8,20.0,30.25,ENE,70,0.0,0.0,89,0.00,,,0.00,Wunderground v.1.15,2013-01-01 07:33:00,
2013-01-01 00:39:00,22.9,20.1,30.26,East,83,0.0,0.0,89,0.00,,,0.00,Wunderground v.1.15,2013-01-01 07:39:00,
2013-01-01 00:45:00,22.8,20.0,30.26,East,79,0.0,0.0,89,0.00,,,0.00,Wunderground v.1.15,2013-01-01 07:45:00,
2013-01-01 00:50:00,22.6,19.8,30.26,ENE,66,0.0,0.0,89,0.00,,,0.00,Wunderground v.1.15,2013-01-01 07:50:00,
2013-01-01 00:55:00,22.4,19.6,30.26,ENE,66,0.0,0.0,89,0.00,,,0.00,Wunderground v.1.15,2013-01-01 07:55:00,
2013-01-01 01:00:00,22.4,19.9,30.26,ENE,63,0.0,0.0,90,0.00,,,0.00,Wunderground v.1.15,2013-01-01 08:00:00,
2013-01-01 01:06:00,22.4,19.6,30.26,ENE,64,0.0,0.0,89,0.00,,,0.00,Wunderground v.1.15,2013-01-01 08:06:00,
2013-01-01 01:12:00,22.2,19.5,30.26,ENE,64,0.0,0.0,89,0.00,,,0.00,Wunderground v.1.15,2013-01-01 08:12:00,
2013-01-01 01:17:00,22.1,19.4,30.26,ENE,64,0.0,0.0,89,0.00,,,0.00,Wunderground v.1.15,2013-01-01 08:17:00,
2013-01-01 01:22:00,21.9,19.2,30.26,ENE,63,0.0,0.0,89,0.00,,,0.00,Wunderground v.1.15,2013-01-01 08:22:00,
2013-01-01 01:28:00,21.5,18.8,30.26,ENE,63,0.0,0.0,89,0.00,,,0.00,Wunderground v.1.15,2013-01-01 08:28:00,
2013-01-01 01:33:00,22.0,19.8,30.27,ENE,63,0.0,0.0,91,0.00,,,0.00,Wunderground v.1.15,2013-01-01 08:33:00,
2013-01-01 01:38:00,22.4,19.9,30.27,ENE,64,0.0,0.0,90,0.00,,,0.00,Wunderground v.1.15,2013-01-01 08:38:00,
2013-01-01 01:44:00,22.3,19.6,30.27,ENE,64,0.0,0.0,89,0.00,,,0.00,Wunderground v.1.15,2013-01-01 08:44:00,
2013-01-01 01:49:00,22.4,19.6,30.27,ENE,64,0.0,0.0,89,0.00,,,0.00,Wunderground v.1.15,2013-01-01 08:49:00,
2013-01-01 01:55:00,22.2,19.5,30.27,ENE,63,0.0,0.0,89,0.00,,,0.00,Wunderground v.1.15,2013-01-01 08:55:00,
2013-01-01 02:00:00,22.0,19.3,30.28,ENE,64,0.0,0.0,89,0.00,,,0.00,Wunderground v.1.15,2013-01-01 09:00:00,
2013-01-01 02:05:00,21.8,19.1,30.27,ENE,64,0.0,0.0,89,0.00,,,0.00,Wunderground v.1.15,2013-01-01 09:05:00,
2013-01-01 02:10:00,21.7,19.0,30.27,ENE,64,0.0,0.0,89,0.00,,,0.00,Wunderground v.1.15,2013-01-01 09:10:00,
2013-01-01 02:15:00,21.5,18.8,30.27,ENE,64,0.0,0.0,89,0.00,,,0.00,Wunderground v.1.15,2013-01-01 09:15:00,
2013-01-01 02:20:00,21.1,18.4,30.28,ENE,64,0.0,0.0,89,0.00,,,0.00,Wunderground v.1.15,2013-01-01 09:20:00,
2013-01-01 02:25:00,21.3,19.1,30.28,ENE,64,0.0,0.0,91,0.00,,,0.00,Wunderground v.1.15,2013-01-01 09:25:00,
2013-01-01 02:30:00,22.2,20.2,30.28,ENE,64,0.0,0.0,92,0.00,,,0.00,Wunderground v.1.15,2013-01-01 09:30:00,
2013-01-01 02:35:00,22.5,20.0,30.28,ENE,64,0.0,0.0,90,0.00,,,0.00,Wunderground v.1.15,2013-01-01 09:35:00,
2013-01-01 02:40:00,22.2,19.5,30.28,ENE,75,0.0,0.0,89,0.00,,,0.00,Wunderground v.1.15,2013-01-01 09:40:00,
2013-01-01 02:45:00,21.4,18.4,30.28,ENE,74,0.0,0.0,88,0.00,,,0.00,Wunderground v.1.15,2013-01-01 09:45:00,
2013-01-01 02:50:00,20.8,18.1,30.29,ENE,74,0.0,0.0,89,0.00,,,0.00,Wunderground v.1.15,2013-01-01 09:50:00,
2013-01-01 02:55:00,20.9,18.4,30.29,ENE,73,0.0,0.0,90,0.00,,,0.00,Wunderground v.1.15,2013-01-01 09:55:00,
2013-01-01 03:00:00,20.9,18.4,30.29,ENE,72,0.0,0.0,90,0.00,,,0.00,Wunderground v.1.15,2013-01-01 10:00:00,
2013-01-01 03:05:00,20.9,18.4,30.29,ENE,73,0.0,0.0,90,0.00,,,0.00,Wunderground v.1.15,2013-01-01 10:05:00,
2013-01-01 03:10:00,20.5,17.8,30.29,ENE,72,0.0,0.0,89,0.00,,,0.00,Wunderground v.1.15,2013-01-01 10:10:00,
2013-01-01 03:15:00,20.2,17.7,30.29,ENE,72,0.0,0.0,90,0.00,,,0.00,Wunderground v.1.15,2013-01-01 10:15:00,
2013-01-01 03:20:00,20.3,18.1,30.29,ENE,70,0.0,0.0,91,0.00,,,0.00,Wunderground v.1.15,2013-01-01 10:20:00,
2013-01-01 03:25:00,20.0,17.3,30.29,ENE,71,0.0,0.0,89,0.00,,,0.00,Wunderground v.1.15,2013-01-01 10:25:00,
2013-01-01 03:30:00,19.8,17.3,30.29,ENE,71,0.0,0.0,90,0.00,,,0.00,Wunderground v.1.15,2013-01-01 10:30:00,
2013-01-01 03:35:00,20.2,18.0,30.29,ENE,70,0.0,0.0,91,0.00,,,0.00,Wunderground v.1.15,2013-01-01 10:35:00,
2013-01-01 03:40:00,20.5,18.3,30.29,ENE,70,0.0,0.0,91,0.00,,,0.00,Wunderground v.1.15,2013-01-01 10:40:00,
2013-01-01 03:45:00,20.5,18.3,30.29,ENE,69,0.0,0.0,91,0.00,,,0.00,Wunderground v.1.15,2013-01-01 10:45:00,
2013-01-01 03:50:00,20.6,18.4,30.29,ENE,64,0.0,0.0,91,0.00,,,0.00,Wunderground v.1.15,2013-01-01 10:50:00,
2013-01-01 03:55:00,20.6,18.1,30.29,ENE,65,0.0,0.0,90,0.00,,,0.00,Wunderground v.1.15,2013-01-01 10:55:00,
2013-01-01 04:00:00,20.5,18.0,30.29,ENE,71,0.0,0.0,90,0.00,,,0.00,Wunderground v.1.15,2013-01-01 11:00:00,
2013-01-01 04:05:00,20.7,18.5,30.29,ENE,68,0.0,0.0,91,0.00,,,0.00,Wunderground v.1.15,2013-01-01 11:05:00,
2013-01-01 04:10:00,20.9,18.4,30.28,ENE,65,0.0,0.0,90,0.00,,,0.00,Wunderground v.1.15,2013-01-01 11:10:00,
2013-01-01 04:15:00,20.7,18.2,30.28,ENE,62,0.0,0.0,90,0.00,,,0.00,Wunderground v.1.15,2013-01-01 11:15:00,
2013-01-01 04:20:00,20.8,18.3,30.28,ENE,60,0.0,0.0,90,0.00,,,0.00,Wunderground v.1.15,2013-01-01 11:20:00,
2013-01-01 04:25:00,21.1,18.9,30.28,ENE,60,0.0,0.0,91,0.00,,,0.00,Wunderground v.1.15,2013-01-01 11:25:00,
2013-01-01 04:30:00,21.4,18.9,30.28,ENE,61,0.0,0.0,90,0.00,,,0.00,Wunderground v.1.15,2013-01-01 11:30:00,
2013-01-01 04:35:00,21.2,18.5,30.28,ENE,61,0.0,0.0,89,0.00,,,0.00,Wunderground v.1.15,2013-01-01 11:35:00,
2013-01-01 04:40:00,20.9,18.2,30.28,ENE,64,0.0,0.0,89,0.00,,,0.00,Wunderground v.1.15,2013-01-01 11:40:00,
2013-01-01 04:45:00,20.9,18.4,30.28,ENE,64,0.0,0.0,90,0.00,,,0.00,Wunderground v.1.15,2013-01-01 11:45:00,
2013-01-01 04:50:00,20.8,18.1,30.28,ENE,62,0.0,0.0,89,0.00,,,0.00,Wunderground v.1.15,2013-01-01 11:50:00,
2013-01-01 04:55:00,20.8,18.3,30.29,ENE,63,0.0,0.0,90,0.00,,,0.00,Wunderground v.1.15,2013-01-01 11:55:00,
2013-01-01 05:00:00,20.7,18.0,30.29,ENE,64,0.0,0.0,89,0.00,,,0.00,Wunderground v.1.15,2013-01-01 12:00:00,
2013-01-01 05:05:00,20.5,17.8,30.28,ENE,65,0.0,0.0,89,0.00,,,0.00,Wunderground v.1.15,2013-01-01 12:05:00,
2013-01-01 05:10:00,20.3,17.6,30.28,ENE,68,0.0,0.0,89,0.00,,,0.00,Wunderground v.1.15,2013-01-01 12:10:00,
2013-01-01 05:15:00,20.1,17.4,30.28,ENE,65,0.0,0.0,89,0.00,,,0.00,Wunderground v.1.15,2013-01-01 12:15:00,
2013-01-01 05:20:00,19.9,17.2,30.29,ENE,65,0.0,0.0,89,0.00,,,0.00,Wunderground v.1.15,2013-01-01 12:20:00,
2013-01-01 05:25:00,19.8,17.1,30.29,ENE,65,0.0,0.0,89,0.00,,,0.00,Wunderground v.1.15,2013-01-01 12:25:00,
2013-01-01 05:30:00,19.8,17.3,30.29,ENE,74,0.0,0.0,90,0.00,,,0.00,Wunderground v.1.15,2013-01-01 12:30:00,
2013-01-01 05:35:00,19.9,17.4,30.28,ENE,64,0.0,0.0,90,0.00,,,0.00,Wunderground v.1.15,2013-01-01 12:35:00,
2013-01-01 05:40:00,20.0,17.5,30.28,ENE,57,2.0,2.0,90,0.00,,,0.00,Wunderground v.1.15,2013-01-01 12:40:00,
2013-01-01 05:45:00,20.4,17.9,30.28,NE,55,0.0,2.0,90,0.00,,,0.00,Wunderground v.1.15,2013-01-01 12:45:00,
2013-01-01 05:50:00,20.5,17.8,30.28,NE,51,0.0,0.0,89,0.00,,,0.00,Wunderground v.1.15,2013-01-01 12:50:00,
2013-01-01 05:55:00,20.6,17.9,30.28,NE,52,0.0,0.0,89,0.00,,,0.00,Wunderground v.1.15,2013-01-01 12:55:00,
2013-01-01 06:00:00,20.6,17.9,30.28,NE,52,0.0,0.0,89,0.00,,,0.00,Wunderground v.1.15,2013-01-01 13:00:00,
2013-01-01 06:05:00,20.9,18.2,30.28,NE,53,0.0,0.0,89,0.00,,,0.00,Wunderground v.1.15,2013-01-01 13:05:00,
2013-01-01 06:10:00,20.9,18.2,30.29,NE,52,0.0,0.0,89,0.00,,,0.00,Wunderground v.1.15,2013-01-01 13:10:00,
2013-01-01 06:15:00,20.9,18.2,30.29,NE,52,0.0,0.0,89,0.00,,,0.00,Wunderground v.1.15,2013-01-01 13:15:00,
2013-01-01 06:20:00,20.6,17.6,30.29,ENE,72,0.0,0.0,88,0.00,,,0.00,Wunderground v.1.15,2013-01-01 13:20:00,
2013-01-01 06:25:00,19.8,16.6,30.29,ENE,68,0.0,0.0,87,0.00,,,0.00,Wunderground v.1.15,2013-01-01 13:25:00,
2013-01-01 06:30:00,19.0,16.0,30.29,ENE,68,0.0,0.0,88,0.00,,,0.00,Wunderground v.1.15,2013-01-01 13:30:00,
2013-01-01 06:35:00,19.1,16.4,30.30,ENE,70,0.0,0.0,89,0.00,,,0.00,Wunderground v.1.15,2013-01-01 13:35:00,
2013-01-01 06:40:00,19.2,16.5,30.29,ENE,69,0.0,0.0,89,0.00,,,0.00,Wunderground v.1.15,2013-01-01 13:40:00,
2013-01-01 06:45:00,19.0,16.3,30.29,ENE,70,0.0,0.0,89,0.00,,,0.00,Wunderground v.1.15,2013-01-01 13:45:00,
2013-01-01 06:50:00,18.6,15.9,30.29,ENE,69,0.0,0.0,89,0.00,,,0.00,Wunderground v.1.15,2013-01-01 13:50:00,
2013-01-01 06:55:00,18.1,15.1,30.29,ENE,70,0.0,0.0,88,0.00,,,0.00,Wunderground v.1.15,2013-01-01 13:55:00,
2013-01-01 07:00:00,18.1,15.7,30.30,ENE,63,0.0,0.0,90,0.00,,,0.00,Wunderground v.1.15,2013-01-01 14:00:00,
2013-01-01 07:05:00,18.5,16.1,30.30,ENE,68,0.0,0.0,90,0.00,,,0.00,Wunderground v.1.15,2013-01-01 14:05:00,
2013-01-01 07:10:00,18.8,16.4,30.30,ENE,68,0.0,0.0,90,0.00,,,0.00,Wunderground v.1.15,2013-01-01 14:10:00,
2013-01-01 07:15:00,19.0,16.6,30.30,ENE,68,0.0,0.0,90,0.00,,,0.00,Wunderground v.1.15,2013-01-01 14:15:00,
2013-01-01 07:20:00,18.8,16.1,30.30,ENE,68,0.0,0.0,89,0.00,,,0.00,Wunderground v.1.15,2013-01-01 14:20:00,
2013-01-01 07:25:00,18.6,15.9,30.30,ENE,68,0.0,0.0,89,0.00,,,0.00,Wunderground v.1.15,2013-01-01 14:25:00,
2013-01-01 07:30:00,18.6,16.2,30.30,ENE,68,0.0,0.0,90,0.00,,,0.00,Wunderground v.1.15,2013-01-01 14:30:00,
2013-01-01 07:35:00,18.6,16.2,30.30,ENE,68,0.0,0.0,90,0.00,,,0.00,Wunderground v.1.15,2013-01-01 14:35:00,
2013-01-01 07:40:00,18.5,16.1,30.31,ENE,68,0.0,0.0,90,0.00,,,0.00,Wunderground v.1.15,2013-01-01 14:40:00,
2013-01-01 07:45:00,18.8,16.6,30.31,ENE,68,0.0,0.0,91,0.00,,,0.00,Wunderground v.1.15,2013-01-01 14:45:00,
2013-01-01 07:50:00,19.4,17.2,30.31,ENE,68,0.0,0.0,91,0.00,,,0.00,Wunderground v.1.15,2013-01-01 14:50:00,
2013-01-01 07:55:00,20.4,18.4,30.31,ENE,68,0.0,0.0,92,0.00,,,0.00,Wunderground v.1.15,2013-01-01 14:55:00,
2013-01-01 08:00:00,21.7,19.5,30.31,ENE,68,0.0,0.0,91,0.00,,,0.00,Wunderground v.1.15,2013-01-01 15:00:00,
2013-01-01 08:05:00,22.7,20.5,30.31,ENE,68,0.0,0.0,91,0.00,,,0.00,Wunderground v.1.15,2013-01-01 15:05:00,
2013-01-01 08:10:00,24.1,21.9,30.31,ENE,67,0.0,0.0,91,0.00,,,0.00,Wunderground v.1.15,2013-01-01 15:10:00,
2013-01-01 08:15:00,26.0,23.7,30.32,ENE,66,0.0,0.0,91,0.00,,,0.00,Wunderground v.1.15,2013-01-01 15:15:00,
2013-01-01 08:20:00,28.1,24.7,30.32,ENE,66,0.0,0.0,87,0.00,,,0.00,Wunderground v.1.15,2013-01-01 15:20:00,
2013-01-01 08:25:00,28.5,24.3,30.31,East,89,0.0,0.0,84,0.00,,,0.00,Wunderground v.1.15,2013-01-01 15:25:00,
2013-01-01 08:30:00,28.9,25.0,30.31,SE,125,0.0,0.0,85,0.00,,,0.00,Wunderground v.1.15,2013-01-01 15:30:00,
2013-01-01 08:35:00,30.1,25.3,30.32,SSE,148,0.0,0.0,82,0.00,,,0.00,Wunderground v.1.15,2013-01-01 15:35:00,
2013-01-01 08:40:00,30.5,25.4,30.32,SSE,152,0.0,0.0,81,0.00,,,0.00,Wunderground v.1.15,2013-01-01 15:40:00,
2013-01-01 08:45:00,30.8,25.1,30.32,SE,138,0.0,0.0,79,0.00,,,0.00,Wunderground v.1.15,2013-01-01 15:45:00,
2013-01-01 08:50:00,30.7,25.6,30.31,ENE,77,2.0,3.0,81,0.00,,,0.00,Wunderground v.1.15,2013-01-01 15:50:00,
2013-01-01 08:55:00,30.5,26.0,30.31,East,90,0.0,3.0,83,0.00,,,0.00,Wunderground v.1.15,2013-01-01 15:55:00,
2013-01-01 09:00:00,30.9,26.1,30.31,ESE,120,0.0,1.0,82,0.00,,,0.00,Wunderground v.1.15,2013-01-01 16:00:00,
2013-01-01 09:05:00,31.6,26.7,30.32,ESE,103,0.0,1.0,82,0.00,,,0.00,Wunderground v.1.15,2013-01-01 16:05:00,
2013-01-01 09:10:00,32.3,26.8,30.32,SE,139,0.0,0.0,80,0.00,,,0.00,Wunderground v.1.15,2013-01-01 16:10:00,
2013-01-01 09:15:00,32.9,27.4,30.32,SE,143,2.0,2.0,80,0.00,,,0.00,Wunderground v.1.15,2013-01-01 16:15:00,
2013-01-01 09:20:00,33.2,27.4,30.33,South,174,2.0,3.0,79,0.00,,,0.00,Wunderground v.1.15,2013-01-01 16:20:00,
2013-01-01 09:25:00,33.3,26.5,30.33,SE,131,2.0,4.0,76,0.00,,,0.00,Wunderground v.1.15,2013-01-01 16:25:00,
2013-01-01 09:30:00,33.1,27.0,30.33,SSE,159,1.0,2.0,78,0.00,,,0.00,Wunderground v.1.15,2013-01-01 16:30:00,
2013-01-01 09:35:00,33.7,27.6,30.33,SW,215,1.0,3.0,78,0.00,,,0.00,Wunderground v.1.15,2013-01-01 16:35:00,
2013-01-01 09:40:00,34.0,27.2,30.33,SSW,208,3.0,3.0,76,0.00,,,0.00,Wunderground v.1.15,2013-01-01 16:40:00,
2013-01-01 09:45:00,33.6,26.8,30.33,SW,221,0.0,3.0,76,0.00,,,0.00,Wunderground v.1.15,2013-01-01 16:45:00,
2013-01-01 09:50:00,33.7,27.3,30.33,SW,225,0.0,1.0,77,0.00,,,0.00,Wunderground v.1.15,2013-01-01 16:50:00,
2013-01-01 09:55:00,34.2,26.8,30.34,SSW,200,1.0,5.0,74,0.00,,,0.00,Wunderground v.1.15,2013-01-01 16:55:00,
2013-01-01 10:00:00,34.5,27.4,30.34,ESE,118,0.0,1.0,75,0.00,,,0.00,Wunderground v.1.15,2013-01-01 17:00:00,
2013-01-01 10:05:00,34.6,26.5,30.33,SW,229,0.0,3.0,72,0.00,,,0.00,Wunderground v.1.15,2013-01-01 17:05:00,
2013-01-01 10:10:00,35.2,27.1,30.33,East,94,0.0,0.0,72,0.00,,,0.00,Wunderground v.1.15,2013-01-01 17:10:00,
2013-01-01 10:15:00,35.2,26.7,30.33,ENE,70,0.0,1.0,71,0.00,,,0.00,Wunderground v.1.15,2013-01-01 17:15:00,
2013-01-01 10:20:00,35.5,26.7,30.33,SW,214,0.0,0.0,70,0.00,,,0.00,Wunderground v.1.15,2013-01-01 17:20:00,
2013-01-01 10:25:00,36.3,27.1,30.33,SE,129,0.0,3.0,69,0.00,,,0.00,Wunderground v.1.15,2013-01-01 17:25:00,
2013-01-01 10:30:00,36.8,25.8,30.33,South,170,0.0,0.0,64,0.00,,,0.00,Wunderground v.1.15,2013-01-01 17:30:00,
2013-01-01 10:35:00,37.2,25.4,30.33,SE,140,0.0,4.0,62,0.00,,,0.00,Wunderground v.1.15,2013-01-01 17:35:00,
2013-01-01 10:40:00,37.6,25.7,30.33,WSW,255,2.0,2.0,62,0.00,,,0.00,Wunderground v.1.15,2013-01-01 17:40:00,
2013-01-01 10:45:00,37.3,24.7,30.33,SSW,200,0.0,4.0,60,0.00,,,0.00,Wunderground v.1.15,2013-01-01 17:45:00,
2013-01-01 10:50:00,36.9,25.1,30.33,South,191,0.0,5.0,62,0.00,,,0.00,Wunderground v.1.15,2013-01-01 17:50:00,
2013-01-01 10:55:00,37.5,25.3,30.33,SSE,162,0.0,5.0,61,0.00,,,0.00,Wunderground v.1.15,2013-01-01 17:55:00,
2013-01-01 11:00:00,38.0,24.9,30.33,SW,235,0.0,4.0,59,0.00,,,0.00,Wunderground v.1.15,2013-01-01 18:00:00,
2013-01-01 11:05:00,38.2,24.3,30.32,WNW,302,3.0,5.0,57,0.00,,,0.00,Wunderground v.1.15,2013-01-01 18:05:00,
2013-01-01 11:10:00,38.2,24.3,30.31,SSE,154,0.0,2.0,57,0.00,,,0.00,Wunderground v.1.15,2013-01-01 18:10:00,
2013-01-01 11:15:00,38.6,24.7,30.31,SSE,158,4.0,4.0,57,0.00,,,0.00,Wunderground v.1.15,2013-01-01 18:15:00,
2013-01-01 11:20:00,38.4,23.6,30.31,SSE,162,5.0,5.0,55,0.00,,,0.00,Wunderground v.1.15,2013-01-01 18:20:00,
2013-01-01 11:25:00,38.5,23.3,30.31,East,99,0.0,5.0,54,0.00,,,0.00,Wunderground v.1.15,2013-01-01 18:25:00,
2013-01-01 11:30:00,38.7,23.9,30.30,ENE,72,0.0,1.0,55,0.00,,,0.00,Wunderground v.1.15,2013-01-01 18:30:00,
2013-01-01 11:35:00,39.1,23.4,30.30,ENE,76,0.0,3.0,53,0.00,,,0.00,Wunderground v.1.15,2013-01-01 18:35:00,
2013-01-01 11:40:00,39.6,24.7,30.30,SW,231,4.0,4.0,55,0.00,,,0.00,Wunderground v.1.15,2013-01-01 18:40:00,
2013-01-01 11:45:00,39.6,23.9,30.29,SW,219,2.0,5.0,53,0.00,,,0.00,Wunderground v.1.15,2013-01-01 18:45:00,
2013-01-01 11:50:00,39.6,23.4,30.29,West,278,2.0,4.0,52,0.00,,,0.00,Wunderground v.1.15,2013-01-01 18:50:00,
2013-01-01 11:55:00,39.5,23.3,30.29,SSE,155,0.0,4.0,52,0.00,,,0.00,Wunderground v.1.15,2013-01-01 18:55:00,
2013-01-01 12:00:00,40.4,22.2,30.28,East,79,2.0,4.0,48,0.00,,,0.00,Wunderground v.1.15,2013-01-01 19:00:00,
2013-01-01 12:05:00,40.1,21.5,30.28,East,86,0.0,4.0,47,0.00,,,0.00,Wunderground v.1.15,2013-01-01 19:05:00,
2013-01-01 12:10:00,40.1,22.9,30.28,SSE,148,0.0,2.0,50,0.00,,,0.00,Wunderground v.1.15,2013-01-01 19:10:00,
2013-01-01 12:15:00,40.4,24.6,30.28,West,262,4.0,8.0,53,0.00,,,0.00,Wunderground v.1.15,2013-01-01 19:15:00,
2013-01-01 12:20:00,40.4,24.6,30.28,West,262,4.0,7.0,53,0.00,,,0.00,Wunderground v.1.15,2013-01-01 19:20:00,
2013-01-01 12:25:00,40.4,23.7,30.28,WSW,248,5.0,8.0,51,0.00,,,0.00,Wunderground v.1.15,2013-01-01 19:25:00,
2013-01-01 12:30:00,40.5,24.2,30.27,SW,229,8.0,8.0,52,0.00,,,0.00,Wunderground v.1.15,2013-01-01 19:30:00,
2013-01-01 12:35:00,40.6,23.9,30.27,WNW,288,3.0,8.0,51,0.00,,,0.00,Wunderground v.1.15,2013-01-01 19:35:00,
2013-01-01 12:40:00,40.8,23.1,30.26,SSW,200,0.0,3.0,49,0.00,,,0.00,Wunderground v.1.15,2013-01-01 19:40:00,
2013-01-01 12:45:00,40.9,22.7,30.25,NE,54,0.0,5.0,48,0.00,,,0.00,Wunderground v.1.15,2013-01-01 19:45:00,
2013-01-01 12:50:00,41.2,22.5,30.25,SE,145,1.0,3.0,47,0.00,,,0.00,Wunderground v.1.15,2013-01-01 19:50:00,
2013-01-01 12:55:00,41.6,22.3,30.25,East,94,2.0,5.0,46,0.00,,,0.00,Wunderground v.1.15,2013-01-01 19:55:00,
2013-01-01 13:00:00,41.7,22.9,30.24,WSW,255,0.0,2.0,47,0.00,,,0.00,Wunderground v.1.15,2013-01-01 20:00:00,
2013-01-01 13:05:00,41.6,22.3,30.24,SE,135,0.0,4.0,46,0.00,,,0.00,Wunderground v.1.15,2013-01-01 20:05:00,
2013-01-01 13:10:00,42.2,22.9,30.23,SSE,160,4.0,6.0,46,0.00,,,0.00,Wunderground v.1.15,2013-01-01 20:10:00,
2013-01-01 13:15:00,42.5,22.6,30.23,SW,226,0.0,6.0,45,0.00,,,0.00,Wunderground v.1.15,2013-01-01 20:15:00,
2013-01-01 13:20:00,42.9,22.5,30.23,NNE,12,0.0,2.0,44,0.00,,,0.00,Wunderground v.1.15,2013-01-01 20:20:00,
2013-01-01 13:25:00,42.8,22.4,30.23,NNE,25,1.0,5.0,44,0.00,,,0.00,Wunderground v.1.15,2013-01-01 20:25:00,
2013-01-01 13:30:00,42.4,22.0,30.23,WSW,240,0.0,2.0,44,0.00,,,0.00,Wunderground v.1.15,2013-01-01 20:30:00,
2013-01-01 13:35:00,42.6,22.2,30.23,SSW,210,3.0,3.0,44,0.00,,,0.00,Wunderground v.1.15,2013-01-01 20:35:00,
2013-01-01 13:40:00,42.8,21.3,30.23,West,263,0.0,1.0,42,0.00,,,0.00,Wunderground v.1.15,2013-01-01 20:40:00,
2013-01-01 13:45:00,43.0,21.4,30.23,SE,124,0.0,4.0,42,0.00,,,0.00,Wunderground v.1.15,2013-01-01 20:45:00,
2013-01-01 13:50:00,43.1,22.1,30.22,NW,307,0.0,0.0,43,0.00,,,0.00,Wunderground v.1.15,2013-01-01 20:50:00,
2013-01-01 13:55:00,43.4,21.8,30.22,NNE,23,0.0,2.0,42,0.00,,,0.00,Wunderground v.1.15,2013-01-01 20:55:00,
2013-01-01 14:00:00,43.5,21.9,30.22,West,260,0.0,0.0,42,0.00,,,0.00,Wunderground v.1.15,2013-01-01 21:00:00,
2013-01-01 14:05:00,43.7,21.5,30.22,ENE,73,1.0,4.0,41,0.00,,,0.00,Wunderground v.1.15,2013-01-01 21:05:00,
2013-01-01 14:10:00,43.5,20.7,30.22,SSE,150,3.0,6.0,40,0.00,,,0.00,Wunderground v.1.15,2013-01-01 21:10:00,
2013-01-01 14:15:00,43.7,20.9,30.21,East,84,0.0,6.0,40,0.00,,,0.00,Wunderground v.1.15,2013-01-01 21:15:00,
2013-01-01 14:20:00,44.4,22.1,30.22,NE,52,1.0,3.0,41,0.00,,,0.00,Wunderground v.1.15,2013-01-01 21:20:00,
2013-01-01 14:25:00,43.9,19.9,30.22,NNE,16,0.0,5.0,38,0.00,,,0.00,Wunderground v.1.15,2013-01-01 21:25:00,
2013-01-01 14:30:00,43.9,21.1,30.21,West,261,0.0,1.0,40,0.00,,,0.00,Wunderground v.1.15,2013-01-01 21:30:00,
2013-01-01 14:35:00,44.3,20.9,30.22,SSE,165,0.0,2.0,39,0.00,,,0.00,Wunderground v.1.15,2013-01-01 21:35:00,
2013-01-01 14:40:00,45.3,21.2,30.22,SSW,192,0.0,0.0,38,0.00,,,0.00,Wunderground v.1.15,2013-01-01 21:40:00,
2013-01-01 14:45:00,45.5,20.1,30.21,NW,318,0.0,4.0,36,0.00,,,0.00,Wunderground v.1.15,2013-01-01 21:45:00,
2013-01-01 14:50:00,45.4,20.0,30.21,SSW,201,0.0,1.0,36,0.00,,,0.00,Wunderground v.1.15,2013-01-01 21:50:00,
2013-01-01 14:55:00,45.9,19.8,30.21,WSW,243,3.0,6.0,35,0.00,,,0.00,Wunderground v.1.15,2013-01-01 21:55:00,
2013-01-01 15:00:00,45.6,19.5,30.21,WSW,248,1.0,4.0,35,0.00,,,0.00,Wunderground v.1.15,2013-01-01 22:00:00,
2013-01-01 15:05:00,45.2,19.1,30.21,SW,235,0.0,4.0,35,0.00,,,0.00,Wunderground v.1.15,2013-01-01 22:05:00,
2013-01-01 15:10:00,45.2,18.5,30.20,NNE,14,0.0,2.0,34,0.00,,,0.00,Wunderground v.1.15,2013-01-01 22:10:00,
2013-01-01 15:15:00,45.5,18.7,30.20,WNW,285,0.0,2.0,34,0.00,,,0.00,Wunderground v.1.15,2013-01-01 22:15:00,
2013-01-01 15:20:00,46.3,19.4,30.21,WSW,245,0.0,0.0,34,0.00,,,0.00,Wunderground v.1.15,2013-01-01 22:20:00,
2013-01-01 15:25:00,45.9,18.4,30.21,WNW,300,4.0,5.0,33,0.00,,,0.00,Wunderground v.1.15,2013-01-01 22:25:00,
2013-01-01 15:30:00,45.7,18.2,30.20,West,281,0.0,1.0,33,0.00,,,0.00,Wunderground v.1.15,2013-01-01 22:30:00,
2013-01-01 15:35:00,45.6,18.1,30.20,WNW,285,2.0,6.0,33,0.00,,,0.00,Wunderground v.1.15,2013-01-01 22:35:00,
2013-01-01 15:40:00,45.2,17.8,30.20,NW,321,2.0,3.0,33,0.00,,,0.00,Wunderground v.1.15,2013-01-01 22:40:00,
2013-01-01 15:45:00,45.9,18.4,30.20,North,357,0.0,4.0,33,0.00,,,0.00,Wunderground v.1.15,2013-01-01 22:45:00,
2013-01-01 15:50:00,46.3,18.7,30.20,WNW,285,3.0,3.0,33,0.00,,,0.00,Wunderground v.1.15,2013-01-01 22:50:00,
2013-01-01 15:55:00,45.9,17.7,30.20,WNW,298,5.0,6.0,32,0.00,,,0.00,Wunderground v.1.15,2013-01-01 22:55:00,
2013-01-01 16:00:00,45.6,18.1,30.20,NW,308,5.0,5.0,33,0.00,,,0.00,Wunderground v.1.15,2013-01-01 23:00:00,
2013-01-01 16:05:00,45.5,18.0,30.20,WNW,295,1.0,6.0,33,0.00,,,0.00,Wunderground v.1.15,2013-01-01 23:05:00,
2013-01-01 16:10:00,45.7,18.2,30.20,West,281,1.0,3.0,33,0.00,,,0.00,Wunderground v.1.15,2013-01-01 23:10:00,
2013-01-01 16:15:00,45.9,18.4,30.20,South,169,0.0,3.0,33,0.00,,,0.00,Wunderground v.1.15,2013-01-01 23:15:00,
2013-01-01 16:20:00,45.6,18.1,30.19,West,264,2.0,4.0,33,0.00,,,0.00,Wunderground v.1.15,2013-01-01 23:20:00,
2013-01-01 16:25:00,45.2,18.5,30.19,WNW,285,4.0,4.0,34,0.00,,,0.00,Wunderground v.1.15,2013-01-01 23:25:00,
2013-01-01 16:30:00,44.9,17.5,30.19,WNW,295,0.0,2.0,33,0.00,,,0.00,Wunderground v.1.15,2013-01-01 23:30:00,
2013-01-01 16:35:00,44.7,19.3,30.19,WNW,297,4.0,4.0,36,0.00,,,0.00,Wunderground v.1.15,2013-01-01 23:35:00,
2013-01-01 16:40:00,43.6,21.4,30.19,WNW,284,4.0,4.0,41,0.00,,,0.00,Wunderground v.1.15,2013-01-01 23:40:00,
2013-01-01 16:45:00,42.5,21.5,30.20,WNW,294,2.0,4.0,43,0.00,,,0.00,Wunderground v.1.15,2013-01-01 23:45:00,
2013-01-01 16:50:00,41.6,21.8,30.20,WNW,285,1.0,2.0,45,0.00,,,0.00,Wunderground v.1.15,2013-01-01 23:50:00,
2013-01-01 16:55:00,40.7,21.5,30.20,WSW,252,0.0,2.0,46,0.00,,,0.00,Wunderground v.1.15,2013-01-01 23:55:00,
2013-01-01 17:00:00,40.2,21.6,30.19,WSW,258,2.0,2.0,47,0.00,,,0.00,Wunderground v.1.15,2013-01-02 00:00:00,
2013-01-01 17:05:00,40.3,21.1,30.19,West,266,0.0,4.0,46,0.00,,,0.00,Wunderground v.1.15,2013-01-02 00:05:00,
2013-01-01 17:10:00,40.4,21.2,30.20,WSW,252,1.0,2.0,46,0.00,,,0.00,Wunderground v.1.15,2013-01-02 00:10:00,
2013-01-01 17:15:00,40.0,21.4,30.20,West,278,0.0,2.0,47,0.00,,,0.00,Wunderground v.1.15,2013-01-02 00:15:00,
2013-01-01 17:20:00,39.2,21.1,30.20,West,270,0.0,1.0,48,0.00,,,0.00,Wunderground v.1.15,2013-01-02 00:20:00,
2013-01-01 17:25:00,38.6,21.1,30.20,WNW,288,0.0,4.0,49,0.00,,,0.00,Wunderground v.1.15,2013-01-02 00:25:00,
2013-01-01 17:30:00,38.1,20.6,30.20,NW,309,0.0,1.0,49,0.00,,,0.00,Wunderground v.1.15,2013-01-02 00:30:00,
2013-01-01 17:35:00,37.2,20.7,30.20,NW,309,0.0,1.0,51,0.00,,,0.00,Wunderground v.1.15,2013-01-02 00:35:00,
2013-01-01 17:40:00,36.5,21.0,30.20,NW,309,0.0,0.0,53,0.00,,,0.00,Wunderground v.1.15,2013-01-02 00:40:00,
2013-01-01 17:45:00,36.1,21.0,30.20,NNW,334,0.0,0.0,54,0.00,,,0.00,Wunderground v.1.15,2013-01-02 00:45:00,
2013-01-01 17:50:00,35.8,20.8,30.20,NNW,342,0.0,0.0,54,0.00,,,0.00,Wunderground v.1.15,2013-01-02 00:50:00,
2013-01-01 17:56:00,35.7,21.1,30.20,NW,319,0.0,3.0,55,0.00,,,0.00,Wunderground v.1.15,2013-01-02 00:56:00,
2013-01-01 18:01:00,35.3,21.2,30.20,North,351,0.0,1.0,56,0.00,,,0.00,Wunderground v.1.15,2013-01-02 01:01:00,
2013-01-01 18:06:00,34.8,21.1,30.20,North,355,2.0,2.0,57,0.00,,,0.00,Wunderground v.1.15,2013-01-02 01:06:00,
2013-01-01 18:11:00,34.7,21.0,30.20,NNE,26,1.0,1.0,57,0.00,,,0.00,Wunderground v.1.15,2013-01-02 01:11:00,
2013-01-01 18:16:00,34.3,21.4,30.20,NNE,24,0.0,2.0,59,0.00,,,0.00,Wunderground v.1.15,2013-01-02 01:16:00,
2013-01-01 18:21:00,33.8,21.4,30.20,NNE,25,0.0,0.0,60,0.00,,,0.00,Wunderground v.1.15,2013-01-02 01:21:00,
2013-01-01 18:26:00,33.4,21.8,30.20,East,90,0.0,1.0,62,0.00,,,0.00,Wunderground v.1.15,2013-01-02 01:26:00,
2013-01-01 18:31:00,32.5,22.0,30.20,ENE,72,0.0,0.0,65,0.00,,,0.00,Wunderground v.1.15,2013-01-02 01:31:00,
2013-01-01 18:36:00,32.1,22.0,30.20,ENE,72,0.0,0.0,66,0.00,,,0.00,Wunderground v.1.15,2013-01-02 01:36:00,
2013-01-01 18:41:00,32.4,22.3,30.21,East,84,0.0,0.0,66,0.00,,,0.00,Wunderground v.1.15,2013-01-02 01:41:00,
2013-01-01 18:46:00,32.3,22.2,30.20,East,83,0.0,0.0,66,0.00,,,0.00,Wunderground v.1.15,2013-01-02 01:46:00,
2013-01-01 18:51:00,31.6,22.2,30.20,East,89,0.0,0.0,68,0.00,,,0.00,Wunderground v.1.15,2013-01-02 01:51:00,
2013-01-01 18:56:00,31.1,22.1,30.21,East,89,0.0,0.0,69,0.00,,,0.00,Wunderground v.1.15,2013-01-02 01:56:00,
2013-01-01 19:01:00,30.6,22.0,30.21,East,88,0.0,0.0,70,0.00,,,0.00,Wunderground v.1.15,2013-01-02 02:01:00,
2013-01-01 19:06:00,30.2,21.9,30.21,East,87,0.0,0.0,71,0.00,,,0.00,Wunderground v.1.15,2013-01-02 02:06:00,
2013-01-01 19:11:00,29.9,22.0,30.21,East,87,0.0,0.0,72,0.00,,,0.00,Wunderground v.1.15,2013-01-02 02:11:00,
2013-01-01 19:16:00,29.9,21.6,30.21,East,84,0.0,0.0,71,0.00,,,0.00,Wunderground v.1.15,2013-01-02 02:16:00,
2013-01-01 19:21:00,29.2,21.3,30.22,ENE,70,0.0,0.0,72,0.00,,,0.00,Wunderground v.1.15,2013-01-02 02:21:00,
2013-01-01 19:26:00,29.4,21.5,30.22,ENE,69,0.0,0.0,72,0.00,,,0.00,Wunderground v.1.15,2013-01-02 02:26:00,
2013-01-01 19:31:00,29.6,21.3,30.22,ENE,70,0.0,0.0,71,0.00,,,0.00,Wunderground v.1.15,2013-01-02 02:31:00,
2013-01-01 19:36:00,30.2,21.2,30.22,ENE,69,0.0,0.0,69,0.00,,,0.00,Wunderground v.1.15,2013-01-02 02:36:00,
2013-01-01 19:41:00,30.1,20.8,30.22,ENE,69,0.0,0.0,68,0.00,,,0.00,Wunderground v.1.15,2013-01-02 02:41:00,
2013-01-01 19:46:00,29.7,21.1,30.21,ENE,70,0.0,0.0,70,0.00,,,0.00,Wunderground v.1.15,2013-01-02 02:46:00,
2013-01-01 19:51:00,29.6,21.3,30.21,ENE,69,0.0,0.0,71,0.00,,,0.00,Wunderground v.1.15,2013-01-02 02:51:00,
2013-01-01 19:56:00,29.5,21.6,30.22,ENE,69,0.0,0.0,72,0.00,,,0.00,Wunderground v.1.15,2013-01-02 02:56:00,
2013-01-01 20:01:00,29.3,21.4,30.22,ENE,75,0.0,0.0,72,0.00,,,0.00,Wunderground v.1.15,2013-01-02 03:01:00,
2013-01-01 20:06:00,28.7,21.1,30.22,East,79,0.0,0.0,73,0.00,,,0.00,Wunderground v.1.15,2013-01-02 03:06:00,
2013-01-01 20:11:00,28.4,21.2,30.22,ENE,77,0.0,0.0,74,0.00,,,0.00,Wunderground v.1.15,2013-01-02 03:11:00,
2013-01-01 20:16:00,27.8,20.6,30.22,ENE,58,0.0,0.0,74,0.00,,,0.00,Wunderground v.1.15,2013-01-02 03:16:00,
2013-01-01 20:21:00,28.3,21.1,30.22,ENE,58,0.0,0.0,74,0.00,,,0.00,Wunderground v.1.15,2013-01-02 03:21:00,
2013-01-01 20:26:00,29.2,21.3,30.22,ENE,58,0.0,0.0,72,0.00,,,0.00,Wunderground v.1.15,2013-01-02 03:26:00,
2013-01-01 20:31:00,29.2,21.3,30.22,ENE,58,0.0,0.0,72,0.00,,,0.00,Wunderground v.1.15,2013-01-02 03:31:00,
2013-01-01 20:36:00,28.4,20.8,30.22,ENE,58,0.0,0.0,73,0.00,,,0.00,Wunderground v.1.15,2013-01-02 03:36:00,
2013-01-01 20:41:00,27.8,20.9,30.23,ENE,58,0.0,0.0,75,0.00,,,0.00,Wunderground v.1.15,2013-01-02 03:41:00,
2013-01-01 20:46:00,27.2,20.6,30.23,ENE,58,0.0,0.0,76,0.00,,,0.00,Wunderground v.1.15,2013-01-02 03:46:00,
2013-01-01 20:51:00,28.7,20.8,30.23,ENE,58,0.0,0.0,72,0.00,,,0.00,Wunderground v.1.15,2013-01-02 03:51:00,
2013-01-01 20:56:00,28.0,20.5,30.23,ENE,58,0.0,0.0,73,0.00,,,0.00,Wunderground v.1.15,2013-01-02 03:56:00,
2013-01-01 21:01:00,26.7,20.1,30.23,ENE,58,0.0,0.0,76,0.00,,,0.00,Wunderground v.1.15,2013-01-02 04:01:00,
2013-01-01 21:06:00,25.9,20.3,30.23,ENE,61,0.0,0.0,79,0.00,,,0.00,Wunderground v.1.15,2013-01-02 04:06:00,
2013-01-01 21:11:00,25.8,20.5,30.23,ENE,61,0.0,0.0,80,0.00,,,0.00,Wunderground v.1.15,2013-01-02 04:11:00,
2013-01-01 21:16:00,26.1,20.5,30.22,ENE,58,0.0,0.0,79,0.00,,,0.00,Wunderground v.1.15,2013-01-02 04:16:00,
2013-01-01 21:21:00,26.3,20.7,30.22,ENE,60,0.0,1.0,79,0.00,,,0.00,Wunderground v.1.15,2013-01-02 04:21:00,
2013-01-01 21:26:00,26.7,20.8,30.22,ENE,68,1.0,2.0,78,0.00,,,0.00,Wunderground v.1.15,2013-01-02 04:26:00,
2013-01-01 21:31:00,26.7,20.5,30.22,ENE,68,1.0,1.0,77,0.00,,,0.00,Wunderground v.1.15,2013-01-02 04:31:00,
2013-01-01 21:36:00,26.8,20.6,30.23,ENE,68,0.0,1.0,77,0.00,,,0.00,Wunderground v.1.15,2013-01-02 04:36:00,
2013-01-01 21:41:00,26.7,20.5,30.23,ENE,63,0.0,1.0,77,0.00,,,0.00,Wunderground v.1.15,2013-01-02 04:41:00,
2013-01-01 21:46:00,26.8,20.6,30.23,ENE,63,0.0,1.0,77,0.00,,,0.00,Wunderground v.1.15,2013-01-02 04:46:00,
2013-01-01 21:51:00,26.9,20.3,30.23,ENE,62,1.0,1.0,76,0.00,,,0.00,Wunderground v.1.15,2013-01-02 04:51:00,
2013-01-01 21:56:00,27.0,20.7,30.23,ENE,64,2.0,3.0,77,0.00,,,0.00,Wunderground v.1.15,2013-01-02 04:56:00,
2013-01-01 22:00:00,27.1,20.5,30.23,ENE,61,1.0,1.0,76,0.00,,,0.00,Wunderground v.1.15,2013-01-02 05:00:00,
2013-01-01 22:02:00,27.0,20.4,30.23,ENE,63,0.0,1.0,76,0.00,,,0.00,Wunderground v.1.15,2013-01-02 05:02:00,
2013-01-01 22:07:00,26.7,20.5,30.23,ENE,63,0.0,1.0,77,0.00,,,0.00,Wunderground v.1.15,2013-01-02 05:07:00,
2013-01-01 22:12:00,26.3,20.1,30.23,ENE,63,0.0,0.0,77,0.00,,,0.00,Wunderground v.1.15,2013-01-02 05:12:00,
2013-01-01 22:17:00,25.9,20.0,30.23,ENE,61,1.0,1.0,78,0.00,,,0.00,Wunderground v.1.15,2013-01-02 05:17:00,
2013-01-01 22:22:00,25.7,20.1,30.23,ENE,61,0.0,2.0,79,0.00,,,0.00,Wunderground v.1.15,2013-01-02 05:22:00,
2013-01-01 22:27:00,25.7,20.4,30.24,ENE,61,0.0,2.0,80,0.00,,,0.00,Wunderground v.1.15,2013-01-02 05:27:00,
2013-01-01 22:32:00,25.5,20.2,30.23,ENE,61,0.0,0.0,80,0.00,,,0.00,Wunderground v.1.15,2013-01-02 05:32:00,
2013-01-01 22:37:00,25.2,19.9,30.23,ENE,61,0.0,0.0,80,0.00,,,0.00,Wunderground v.1.15,2013-01-02 05:37:00,
2013-01-01 22:42:00,25.3,20.0,30.23,ENE,61,0.0,0.0,80,0.00,,,0.00,Wunderground v.1.15,2013-01-02 05:42:00,
2013-01-01 22:47:00,25.5,20.5,30.24,ENE,70,1.0,3.0,81,0.00,,,0.00,Wunderground v.1.15,2013-01-02 05:47:00,
2013-01-01 22:52:00,25.9,20.6,30.24,ENE,74,1.0,1.0,80,0.00,,,0.00,Wunderground v.1.15,2013-01-02 05:52:00,
2013-01-01 22:57:00,26.3,20.7,30.24,ENE,78,0.0,1.0,79,0.00,,,0.00,Wunderground v.1.15,2013-01-02 05:57:00,
2013-01-01 23:02:00,26.3,20.4,30.24,ENE,63,0.0,0.0,78,0.00,,,0.00,Wunderground v.1.15,2013-01-02 06:02:00,
2013-01-01 23:07:00,26.1,20.2,30.24,ENE,60,1.0,1.0,78,0.00,,,0.00,Wunderground v.1.15,2013-01-02 06:07:00,
2013-01-01 23:12:00,26.3,20.4,30.24,ENE,61,1.0,2.0,78,0.00,,,0.00,Wunderground v.1.15,2013-01-02 06:12:00,
2013-01-01 23:17:00,26.6,20.4,30.24,ENE,61,2.0,2.0,77,0.00,,,0.00,Wunderground v.1.15,2013-01-02 06:17:00,
2013-01-01 23:22:00,26.2,20.0,30.24,ENE,62,1.0,2.0,77,0.00,,,0.00,Wunderground v.1.15,2013-01-02 06:22:00,
2013-01-01 23:27:00,25.9,20.0,30.24,ENE,78,1.0,2.0,78,0.00,,,0.00,Wunderground v.1.15,2013-01-02 06:27:00,
2013-01-01 23:32:00,25.9,20.3,30.24,ENE,70,1.0,2.0,79,0.00,,,0.00,Wunderground v.1.15,2013-01-02 06:32:00,
2013-01-01 23:37:00,25.8,20.2,30.24,ENE,75,2.0,2.0,79,0.00,,,0.00,Wunderground v.1.15,2013-01-02 06:37:00,
2013-01-01 23:42:00,25.8,20.2,30.24,ENE,67,1.0,2.0,79,0.00,,,0.00,Wunderground v.1.15,2013-01-02 06:42:00,
2013-01-01 23:47:00,25.7,20.1,30.24,ENE,65,1.0,2.0,79,0.00,,,0.00,Wunderground v.1.15,2013-01-02 06:47:00,
2013-01-01 23:52:00,25.8,20.2,30.24,ENE,62,2.0,2.0,79,0.00,,,0.00,Wunderground v.1.15,2013-01-02 06:52:00,
2013-01-01 23:57:00,25.9,20.3,30.24,ENE,61,2.0,2.0,79,0.00,,,0.00,Wunderground v.1.15,2013-01-02 06:57:00,